Powrót do katalogu

FENGYUN 1C DEB

LostSSO
NORAD 38729·DEBRIS·🇨🇳 China

Wystrzelony May 10, 1999 z Taiyuan Satellite Launch Center

Loading…

Następne Przeloty (najbliższe 24 godziny)

TLE

NieaktualneSource: Space-Track

Epoka: Sep 29, 2024, 07:43 UTC

1 38729U 99025ETW 24273.32203255  .00006167  00000-0  36217-2 0  9995
2 38729  99.2647 304.5320 0086126  77.6676 283.4116 14.06608196770692

Śledź FENGYUN 1C DEB w czasie rzeczywistym z AllMySat

Download on the App Store